Wind_Speed
4 4 6 7 5 2 5 5 10 4 5 6 7 3 10 16 12 12 13 14 15 15 9 13 24 28 28 33 35 37 36 38 37 33 31 31 33 32 27 24 22 18 20 21
6 6 8 5 6 3 5 7 2 3 1 3 1 7 3 14 16 16 16 15 15 7 6 10 18 21 27 37 39 35 35 36 37 37 33 31 30 26 25 22 21 21 20 20
5 9 7 4 12 4 3 3 2 4 2 6 3 5 4 4 2 8 13 9 6 9 9 9 10 23 25 25 39 39 40 37 36 36 30 25 21 18 21 22 21 22 21 24
5 6 6 8 8 6 1 3 0 3 4 2 3 4 4 6 6 7 6 13 10 10 9 9 9 16 26 29 33 35 34 36 35 33 32 31 25 21 26 23 22 23 22 22
7 5 4 6 7 5 7 3 2 1 4 3 1 5 4 1 6 5 3 4 6 9 5 8 9 15 10 14 23 28 29 32 34 34 35 36 32 29 22 21 21 21 21 21
8 4 4 8 4 2 2 5 6 5 3 3 7 3 6 2 6 3 5 2 2 5 6 5 8 7 6 6 15 24 28 24 21 23 32 34 34 32 25 22 20 21 22 21
6 6 4 5 2 4 6 6 3 5 5 4 4 4 6 4 5 4 2 8 2 4 5 7 6 4 5 5 4 13 13 11 12 30 45 36 34 32 32 28 27 23 23 23
1 8 3 3 8 7 3 7 6 3 2 3 5 1 5 4 0 1 4 4 6 8 7 8 8 6 12 12 8 12 19 15 9 42 30 56 43 33 35 30 30 27 26 23
5 6 5 6 2 8 2 2 4 7 3 3 4 4 2 4 5 6 7 11 10 12 15 15 18 22 14 17 12 14 12 9 7 4 31 47 52 31 28 29 26 30 25 22
2 3 3 5 3 5 4 6 3 3 4 3 4 5 5 7 6 6 10 11 8 4 10 11 12 19 2 6 13 7 10 10 14 23 31 36 26 23 20 24 25 26 22 19
5 3 8 3 5 2 5 3 6 6 4 5 2 6 5 7 8 8 10 13 6 5 5 5 7 18 15 9 4 2 13 13 15 30 28 30 21 27 24 24 19 18 16 15
6 5 2 2 3 4 4 4 4 5 1 2 3 5 6 7 6 6 7 3 5 5 4 2 8 18 9 16 14 9 5 8 17 23 22 23 22 17 18 17 18 15 13 10
8 0 3 8 6 5 6 3 5 5 3 2 5 5 5 5 1 7 6 6 5 4 3 5 8 10 2 9 10 9 6 6 8 5 8 4 3 8 8 6 6 8 8 8
9 4 6 6 5 4 4 1 3 5 4 3 4 2 6 4 7 7 7 8 7 5 5 7 7 9 7 3 5 11 13 10 7 5 4 2 4 6 9 8 6 5 4 6
5 4 4 2 1 2 5 3 3 4 5 5 4 6 2 3 6 3 6 6 7 6 5 5 5 6 12 11 10 10 12 11 11 7 4 1 3 4 5 5 5 5 5 6
4 2 3 6 6 7 5 11 5 4 5 8 8 6 4 7 12 15 11 10 9 5 4 6 7 6 12 15 19 18 17 16 12 9 6 7 6 7 5 4 3 3 3 5
4 6 3 1 4 3 6 7 4 5 5 5 5 3 5 10 12 7 7 8 6 5 7 9 9 13 17 16 15 16 17 17 18 18 17 15 14 13 12 9 9 9 8 8
6 4 3 3 1 3 6 2 11 14 10 9 11 7 5 9 7 7 6 6 6 6 6 6 10 16 16 19 22 24 23 24 21 23 23 22 20 19 20 18 17 16 15 14
3 5 4 4 3 2 4 5 3 4 3 4 6 5 2 1 3 6 6 6 4 5 6 10 18 19 21 23 24 23 22 21 21 23 26 27 27 27 27 25 24 23 22 21
6 8 5 2 5 7 6 2 2 5 1 1 4 4 3 4 3 3 6 6 7 12 14 17 19 21 22 26 27 26 25 25 25 25 25 26 23 21 26 29 29 28 27 27
4 4 5 3 2 5 4 0 5 3 6 4 4 4 4 3 4 1 5 4 4 7 14 17 18 17 21 25 26 23 23 22 24 23 26 25 22 22 21 21 22 25 27 30
4 5 2 3 4 4 2 1 5 5 3 6 4 4 5 5 5 2 2 5 9 12 16 19 18 20 24 26 24 21 21 26 28 28 27 28 27 28 26 26 29 28 29 29
1 5 6 4 4 3 3 5 4 4 6 5 6 4 6 5 4 5 6 7 10 14 18 21 18 19 20 21 24 21 29 29 28 27 28 28 27 28 26 25 25 25 26 25
2 3 4 4 3 0 4 4 4 4 6 7 7 8 8 5 4 4 5 5 8 14 15 18 18 19 21 20 25 23 27 23 27 26 25 25 24 25 26 25 24 21 21 20
4 4 6 2 1 2 4 5 6 9 10 11 8 6 5 5 3 3 6 8 10 12 14 17 17 19 20 23 23 23 25 26 26 25 24 24 24 24 25 25 24 21 23 24
3 7 5 5 9 5 4 5 7 10 8 7 7 5 5 6 4 5 5 9 10 12 14 14 16 17 21 23 23 24 25 26 26 26 24 24 25 24 25 22 23 22 24 27
Wind_Direction
354 18 265 272 216 215 253 223 232 231 202 144 219 83 190 187 192 197 200 206 211 221 226 202 209 199 192 203 204 209 207 216 217 215 225 232 233 239 239 242 247 245 235 237
4 274 277 247 265 291 269 250 327 29 107 115 158 135 134 192 205 203 200 208 210 206 158 190 197 201 197 195 201 205 208 212 217 215 220 221 233 237 235 240 244 243 239 239
179 252 306 322 305 311 232 134 126 153 45 26 59 346 35 30 252 206 216 217 187 181 184 200 144 191 204 205 197 206 210 214 215 215 221 219 238 237 231 235 239 239 242 237
231 301 272 285 249 190 61 212 329 103 67 227 82 265 53 340 0 23 238 197 184 182 176 188 168 187 202 210 210 212 212 216 218 216 212 211 222 221 235 242 245 240 242 243
246 318 342 312 257 163 218 81 59 23 113 104 342 86 322 349 356 333 340 127 195 200 179 170 187 194 192 217 228 224 226 220 219 223 224 225 228 241 253 253 249 245 244 243
248 252 228 221 295 180 75 82 49 51 82 36 329 84 321 294 221 274 334 133 292 30 26 348 343 108 124 190 224 222 226 233 235 235 229 230 235 240 242 248 249 252 248 245
318 260 256 182 203 25 73 55 359 360 16 217 315 63 225 291 283 177 225 307 337 20 13 311 266 221 157 187 203 213 181 112 60 357 325 288 241 244 247 248 249 248 249 247
236 328 191 194 194 179 102 144 146 218 219 260 333 145 231 208 359 336 164 136 74 18 351 312 292 250 238 244 212 156 133 143 85 25 308 281 278 249 250 250 251 251 253 258
173 267 311 242 140 128 164 148 187 101 35 71 305 314 140 176 203 127 99 69 38 24 357 345 338 333 310 240 175 146 149 164 203 206 221 238 266 250 253 254 259 256 257 263
191 313 285 330 80 40 109 158 57 22 145 192 300 287 236 192 191 242 111 103 105 108 310 337 334 320 325 246 142 182 207 190 240 231 241 234 272 263 274 269 263 265 259 266
155 99 296 11 19 253 27 24 52 112 102 151 171 264 231 178 186 172 151 157 191 127 214 299 316 297 92 102 84 174 172 184 219 224 253 257 281 271 278 265 262 265 275 265
201 146 200 177 9 18 112 111 114 110 208 112 147 272 310 182 191 161 174 314 113 145 218 265 266 269 89 101 93 107 121 207 222 236 253 274 276 277 278 279 265 268 274 261
182 40 52 353 1 1 57 4 101 106 71 196 133 267 346 105 235 204 167 131 116 159 193 265 264 259 321 82 109 131 129 154 168 181 192 211 5 360 3 308 280 280 280 275
101 94 145 173 203 163 103 342 89 108 107 177 225 326 333 35 85 95 101 126 138 153 186 243 266 272 314 259 184 175 188 206 236 228 180 126 62 60 61 61 45 30 352 311
89 105 97 144 217 121 69 74 212 122 171 159 184 112 314 27 85 87 106 117 132 164 213 258 301 311 314 295 278 271 254 234 217 208 215 310 46 44 49 60 49 36 17 356
22 146 58 17 354 60 62 21 94 26 100 77 109 86 36 38 62 51 46 61 51 28 325 285 276 307 326 315 302 290 274 276 256 243 243 270 280 289 287 276 266 273 306 326
88 125 90 229 346 36 14 336 49 46 15 130 127 94 116 84 83 75 61 63 66 31 16 10 354 339 327 319 327 329 308 295 252 237 246 243 243 250 259 262 269 270 269 274
118 95 86 167 14 47 228 133 87 86 49 54 79 94 116 112 108 69 45 72 51 34 25 13 3 3 3 356 354 347 332 314 294 269 260 260 255 250 254 248 245 249 252 254
64 119 69 107 70 37 283 261 257 113 16 359 96 88 64 143 83 33 30 43 34 16 2 353 351 345 343 348 345 341 339 337 328 313 304 297 290 275 263 253 249 249 251 250
62 67 103 107 134 197 226 219 118 119 316 199 131 103 64 38 13 286 2 357 1 4 5 350 351 344 340 336 336 330 326 324 319 321 317 311 306 294 281 277 269 264 257 257
27 19 116 100 119 286 231 315 119 127 225 156 127 122 131 138 191 143 27 356 324 352 357 354 344 338 337 339 337 329 326 318 318 318 319 314 309 307 302 293 292 283 276 270
145 126 132 92 90 254 42 129 182 177 95 129 142 149 130 126 85 74 342 350 355 351 349 347 338 333 338 338 335 324 314 317 316 311 308 305 307 308 301 292 288 283 281 274
62 176 163 164 209 274 294 137 115 122 139 165 132 130 118 100 42 14 352 352 343 344 336 337 329 334 338 335 332 314 317 314 316 309 303 303 303 302 293 282 278 274 271 264
73 150 98 92 281 145 92 63 103 128 109 94 93 84 75 90 39 7 353 338 339 346 335 331 334 335 330 343 344 335 331 345 339 324 311 298 293 296 291 283 277 266 260 254
197 95 127 45 332 74 30 128 123 101 98 90 81 89 94 85 35 1 355 355 346 338 341 343 343 338 338 338 337 333 330 327 325 320 316 311 305 294 289 284 277 266 262 256
178 166 157 198 192 143 155 137 119 113 115 121 116 87 73 71 36 346 14 356 347 350 348 357 356 346 339 336 331 332 331 327 319 315 313 309 304 303 301 285 280 277 274 276
Height
750 770 779 767 764 763 769 776 774 753 738 747 757 762 759 751 755 758 758 758 758 756 756 761 761 762 767 769 773 775 779 782 787 792 795 795 794 795 797 797 798 799 800 803
770 780 753 751 752 761 760 769 763 746 736 747 753 770 756 752 751 750 752 754 755 758 758 755 759 765 765 761 766 773 778 781 785 788 791 794 793 793 792 794 796 797 798 800
776 759 743 750 755 762 762 760 756 759 750 751 759 775 765 757 751 748 748 748 753 754 754 750 755 757 761 765 763 769 775 780 785 788 793 796 798 795 792 789 790 792 795 797
763 744 748 756 762 756 765 741 743 751 771 793 763 813 778 770 766 758 751 748 749 746 747 748 752 752 756 762 767 769 776 779 782 785 789 792 793 792 791 788 786 786 789 791
765 754 755 759 749 738 754 735 747 751 776 779 777 801 794 774 778 766 757 752 751 746 749 748 750 751 760 769 770 773 775 775 780 783 785 788 789 790 792 791 789 785 784 786
756 738 744 747 730 729 734 746 765 781 792 814 806 798 811 798 781 765 759 752 751 755 757 755 757 760 762 764 769 770 773 781 787 790 788 786 786 787 789 790 789 786 782 783
763 749 732 726 741 737 750 779 819 818 828 822 799 804 807 780 774 765 766 761 754 755 757 757 759 763 762 762 768 772 775 782 787 789 797 799 785 785 786 786 785 783 781 780
788 787 740 723 737 752 754 773 816 821 833 817 791 802 799 772 771 768 762 763 755 755 759 759 756 761 763 762 768 770 774 776 775 773 790 784 795 781 785 781 781 778 778 777
792 774 733 728 725 731 759 777 765 812 816 822 817 794 783 776 773 764 760 756 758 753 756 760 760 763 765 761 769 769 769 769 765 769 791 784 786 775 778 778 777 774 772 772
758 780 741 729 721 731 740 752 785 806 823 826 824 815 805 788 777 771 757 757 758 756 752 765 768 771 768 759 766 769 769 768 765 765 773 781 778 774 772 775 773 773 767 769
752 768 762 742 753 756 763 771 785 796 810 832 836 818 780 775 767 766 760 759 759 753 758 770 774 776 769 762 761 766 768 768 770 770 771 772 766 769 770 772 770 770 765 763
743 775 784 758 747 743 750 763 780 807 802 825 823 808 770 763 763 758 761 764 758 761 768 771 776 777 770 767 764 766 766 768 772 774 773 769 767 767 767 763 767 767 761 759
743 777 800 786 770 753 766 764 779 791 803 809 818 805 766 763 764 763 763 764 766 770 772 776 778 775 768 767 769 767 767 770 773 772 773 770 768 765 763 761 761 761 757 755
733 776 781 802 780 770 775 767 772 782 808 810 807 794 786 774 769 767 767 768 770 773 775 777 774 769 764 766 768 768 769 770 769 769 768 768 767 764 762 761 760 756 753 753
736 771 765 767 760 760 769 772 772 779 782 790 790 794 785 779 778 774 771 773 775 779 779 776 774 772 770 768 768 767 768 769 769 768 766 763 762 762 761 760 757 755 753 752
746 774 766 778 767 765 781 780 774 773 778 784 788 791 778 778 772 776 776 774 779 783 783 781 776 771 769 768 766 766 765 767 767 762 759 759 756 756 755 755 753 752 750 750
754 774 789 790 783 776 802 795 787 786 782 779 797 790 785 788 787 789 790 786 789 788 785 781 780 778 774 769 766 763 761 758 757 753 753 751 750 749 747 746 746 745 745 745
761 777 791 802 790 819 799 780 781 787 788 785 786 789 789 789 790 790 790 791 792 790 788 786 784 780 777 774 769 765 759 756 754 751 748 746 745 742 743 742 741 741 741 742
750 772 799 805 825 804 794 783 782 789 800 790 791 787 783 781 784 793 790 790 791 789 786 784 781 778 774 771 768 765 761 758 754 750 746 744 742 740 738 736 736 736 736 736
754 762 780 809 810 824 790 774 770 776 814 786 787 787 786 786 801 801 792 792 790 789 787 783 779 776 772 768 765 760 757 754 751 748 746 742 739 735 733 732 731 730 729 728
781 787 796 808 812 801 777 772 772 803 806 783 786 788 789 798 799 796 795 795 794 791 786 783 779 775 772 767 763 758 754 750 747 744 741 737 733 732 728 726 724 724 722 721
779 793 801 811 813 805 772 772 785 786 784 786 789 790 793 793 796 797 796 792 789 786 783 780 777 773 769 766 761 757 753 748 744 740 736 732 728 725 723 721 720 718 716 714
780 779 794 797 797 782 777 775 776 778 783 787 788 788 791 794 796 795 793 791 788 785 782 780 777 773 769 765 760 754 749 744 739 735 730 727 723 720 717 715 712 710 709 708
766 772 787 792 786 781 777 776 776 778 781 785 788 790 792 796 797 796 794 792 789 786 783 779 775 771 768 764 761 756 749 743 738 732 726 721 716 713 709 706 704 702 700 699
770 771 788 794 783 782 781 779 780 783 784 787 791 793 795 796 796 795 793 791 790 788 784 780 777 773 769 764 759 755 748 743 736 729 723 717 712 707 702 699 696 693 691 691
766 774 784 790 775 780 782 781 781 784 788 791 793 795 796 796 795 794 792 791 789 786 784 780 778 773 768 762 757 752 746 740 732 725 719 714 709 702 697 692 688 686 684 682